Weather in Norrkoping

Sweden     58°35′40″N   16°10′55″E
temp.,
°C
wind,
m/s
gust,
m/s
humid.,
%
clouds,
%
prec.,
mm/h
press.,
hPa
HPBL,
m
20 june, sun
sun2023:00+23wsw49575 0.0 1011287
02:00+18wsw238550 0.0 101272
05:00+17w119496 0.0 101121
08:00+22ssw12736 0.0 1012497
11:00+28s353670 0.0 10111416
14:00+29se674478 0.0 10091446
17:00+28se6104620 0.0 1007739
20:00+25sse613584 0.0 1006788
21 june, mon
mon2123:00+22s5147168 0.3 1006569
02:00+19ssw37915 0.4 1006213
05:00+17wsw3794100 0.0 1007451
08:00+18wsw357188 0.0 1009477
11:00+24sw2544100 0.0 10091027
14:00+29ssw362984 0.0 10081821
17:00+27se565422 0.0 1007951
20:00+23se4106719 0.2 1006507
22 june, tue
tue2223:00+20sse3117845 0.0 1007372
02:00+16ssw119662 0.0 100728
05:00+15wsw2297100 0.5 100789
08:00+17w2394100 5.9 1007316
11:00+18w2392100 4.3 1007538
14:00+21w467299 4.3 1008989
17:00+20wnw467162 0.1 1010890
20:00+17wnw358496 0.1 1012604
23 june, wed
wed2323:00+15wnw249399 0.1 1013269
02:00+14nnw249497 0.1 1014305
05:00+13nnw2493100 0.0 1015262
08:00+15nnw2283100 0.0 1017479
11:00+18nnw226997 0.0 1018927
14:00+20nne1261100 0.1 10181116
17:00+20e2262100 0.0 10181130
20:00+17ese3479100 0.0 1019262
24 june, thu
thu2423:00+13e2497100 0.0 1019106
02:00+13ene2392100 0.0 101995
05:00+13ne2492100 0.0 1018156
08:00+17ene247113 0.0 1018639
11:00+20e335788 0.0 1018953
14:00+21e445094 0.0 1017808
17:00+22ese444785 0.0 1016875
20:00+15se2387100 0.3 1016124